Location: Chester
(43.2628°N, 72.5951°W)
Time: 17:58:24
(UTC-05:00)

ISS - Pass Details

Date: 31 January 2021
Orbit: 417 x 422 km, 51.6° (Epoch: 08 March)

Event Time Altitude Azimuth Distance (km) Brightness Sun altitude
Rises 18:17:24 0° 304° (NW) 2,376 0.8 -14.0°
Reaches altitude 10° 18:19:41 10° 316° (NW) 1,510 -0.5 -14.4°
Maximum altitude 18:22:42 29° 19° (NNE) 803 -2.6 -15.0°
Enters shadow 18:23:24 27° 43° (NE) 856 -2.6 -15.1°
